www.pogodaiklimat.ru

Погода и климат >> Архив погоды >> Россия >> Волгоградская область >> Калач-на-Дону


ПОГОДА в Калаче-на-Дону

  • Прогноз погоды в Калаче-на-Дону
  • Монитор погоды в Калаче-на-Дону

АРХИВ ПОГОДЫ в Калаче-на-Дону

Время (UTC), дата Ветер
(напр.,м/с)
 
Видим.   Явления Облачность Т
(С)
Тd
(С)
f
(%)
Тe
(С)
Тes
(С)
Комфортность P
(гПа)
Po
(гПа)
Тmin
(С)
Tmax
(С)
R
(мм)
R24
(мм)
S
(см)
18 19.05 СЗ 1 10 км ясно +18.2 +6.6 47 +19 +19 1014.5 1010.0
21 19.05 С 1 10 км ясно +11.8 +5.9 67 +12 +12 1014.8 1010.2
00 20.05 С 2 10 км ясно +12.4 +3.4 54 +12 +12 1016.2 1011.6
03 20.05 СВ 1 20 км ясно +12.9 +2.7 50 +13 +15 1018.7 1014.1 +10.3
06 20.05 В 3 20 км ясно +17.8 +2.6 36 +18 +27 1019.4 1014.9
09 20.05 В 2 20 км 6/0
[Ci fib]
+20.5 -1.4 23 +21 +36 комфорт 1019.4 1014.9
12 20.05 С 1 20 км 10/0
[Cs]
+21.6 -1.9 21 +21 +32 комфорт 1019.2 1014.8
15 20.05 СЗ 2 20 км 9/0
[Ci fib]
+22.3 -0.4 22 +21 +23 комфорт 1018.6 1014.1 +23.0
18 20.05 штиль 0 10 км 8/0
[Ci fib]
+13.2 +7.8 70 +13 +13 1019.5 1014.9
21 20.05 СВ 1 10 км ясно +10.8 +5.1 68 +11 +11 1020.0 1015.3
00 21.05 С 1 10 км 3/0
[Ci fib]
+9.2 +3.9 69 +9 +9 1020.9 1016.2
03 21.05 штиль 0 20 км 8/0
[Ci fib]
+10.3 +4.3 66 +10 +11 1022.2 1017.6 +6.9
06 21.05 Ю 2 20 км ясно +18.4 +4.0 38 +19 +30 1022.5 1018.0
09 21.05 Ю 2 20 км 8/3 1000 м
[Cu med, cong Ci fib]
+22.1 +2.0 27 +22 +32 комфорт 1022.0 1017.6
12 21.05 Ю 3 20 км 4/3 1000 м
[Cu med, cong Ci fib]
+23.7 +2.9 26 +23 +30 комфорт 1020.9 1016.4
15 21.05 Ю 1 20 км 3/0
[Ci fib]
+23.4 +2.9 26 +23 +25 комфорт 1020.0 1015.5 +24.4
18 21.05 ЮВ 1 10 км 3/0
[Ci fib]
+15.5 +6.0 53 +16 +16 1020.3 1015.7
21 21.05 ЮВ 1 10 км ясно +12.6 +4.4 57 +13 +13 1020.3 1015.7
00 22.05 штиль 0 10 км ясно +9.6 +4.1 69 +9 +9 1019.9 1015.2
03 22.05 ЮЗ 2 20 км 9/0
[Ci fib]
+16.6 +6.0 50 +17 +18 1019.6 1015.1 +9.4
06 22.05 Ю 3 20 км 10/0
[As trans]
+19.5 +2.5 32 +20 +24 1019.3 1014.8
09 22.05 Ю 3 20 км 10/0
[Cs]
+22.1 +2.4 27 +22 +34 комфорт 1017.7 1013.3
12 22.05 Ю 4 20 км 10/0
[Cs]
+23.7 +1.9 24 +23 +29 комфорт 1015.7 1011.3
15 22.05 Ю 2 20 км 10/0
[Ac cast Ci fib]
+22.2 +2.2 27 +22 +23 комфорт 1014.0 1009.6 +24.0
18 22.05 Ю 2 10 км 6/0
[Ac lent]
+18.4 +6.2 45 +19 +19 1013.1 1008.7
21 22.05 Ю 2 10 км 10/10 600 м
[Sc]
+18.3 +5.9 44 +19 +19 1012.3 1007.8
00 23.05 Ю 2 10 км 8/8 600 м
[Sc]
+16.3 +13.4 83 +16 +16 1011.9 1007.4
03 23.05 Ю 2 20 км 8/3 600 м
[Sc Ci]
+16.5 +13.1 80 +17 +18 1010.8 1006.3 +15.8
06 23.05 Ю 2 20 км 10/6 600 м
[Cb cap Ac und]
+18.4 +14.2 77 +19 +21 1010.1 1005.6
09 23.05 ЮЗ 2 10 км гроза, ливневой дождь 10/10 600 м
[Cb cap]
+16.5 +15.4 93 +17 +17 1009.1 1004.6
12 23.05 З 8-14
{17}
20 км {гроза, ливн. осадки} 10/9
[Cb cap Ac und]
+19.2 +8.5 50 +19 +19 1008.5 1004.1
15 23.05 З 4
{16}
20 км 8/0
[Ac As Ci fib]
+19.2 +9.9 55 +20 +21 1007.7 1003.2 +23.8 3
18 23.05 З 2 10 км 8/0
[Ac As Ci fib]
+16.6 +12.3 76 +17 +17 1007.8 1003.3
21 23.05 СЗ 1 10 км ясно +15.5 +11.6 78 +16 +16 1007.7 1003.2
00 24.05 З 3 10 км 8/0
[Ac As]
+15.9 +11.3 74 +15 +15 1006.9 1002.4
03 24.05 СЗ 3 20 км 8/3 600 м
[Cb cap Ac As]
+16.5 +11.8 74 +16 +17 1007.4 1002.9 +15.0
06 24.05 СЗ 4 20 км 3/0
[Ac trans]
+21.3 +11.8 55 +23 +29 комфорт 1007.7 1003.3
09 24.05 СЗ 3 20 км 8/8 1000 м
[Cu hum]
+25.4 +10.6 39 +26 +29 жарко 1007.8 1003.5
12 24.05 З 2 20 км 8/8 600 м
[Cb cap]
+27.8 +9.0 31 +28 +30 жарко 1007.7 1003.4
15 24.05 З 2 20 км 8/8 600 м
[Cb cap Ac trans]
+26.3 +10.4 37 +27 +28 жарко 1008.1 1003.8 +27.8
18 24.05 СВ 1 10 км 9/9 600 м
[Cb cap]
+20.1 +13.8 67 +23 +23 комфорт 1009.8 1005.4
21 24.05 З 1 10 км 8/8 600 м
[Cb cap]
+17.2 +15.1 87 +18 +18 1010.9 1006.4
00 25.05 В 1 10 км 9/9 600 м
[Cb cap]
+15.7 +12.3 80 +16 +16 1012.3 1007.8
03 25.05 В 3 20 км 9/8 600 м
[Cb cap Ac trans]
+15.0 +10.7 75 +14 +14 1013.3 1008.8 +14.8
06 25.05 ЮВ 4 20 км 9/0
[Ci fib]
+18.0 +9.7 58 +18 +24 1013.0 1008.5
09 25.05 ЮВ 3 20 км 8/0
[Ci fib]
+22.1 +11.5 51 +24 +37 комфорт 1011.8 1007.4
12 25.05 ЮВ 4 20 км 9/0
[Ci fib]
+24.4 +11.0 43 +26 +32 жарко 1010.0 1005.6
15 25.05 В 3 20 км 9/0
[Ac As Ci sp]
+24.5 +10.6 42 +26 +27 жарко 1008.5 1004.1 +25.1
18 25.05 СВ 1
{11}
10 км слаб. ливневой дождь 10/10 600 м
[Cb cap]
+17.9 +16.5 92 +19 +19 1008.4 1004.0
21 25.05 Ю 1
{11}
10 км {ливн. осадки} 10/10 600 м
[Cb cap]
+17.7 +15.9 89 +19 +19 1008.2 1003.8
00 26.05 Ю 3 10 км 10/10 600 м
[Cb cap]
+16.4 +14.5 89 +16 +16 1007.5 1003.0
03 26.05 ЮЗ 4 20 км 10/10 600 м
[Cb cap]
+16.6 +14.4 87 +16 +16 1007.5 1003.1 +16.4 3
06 26.05 Ю 5
{10}
20 км 10/10 600 м
[Cb cap]
+19.2 +14.3 73 +20 +20 1007.9 1003.4
09 26.05 ЮЗ 5-10
{12}
20 км {ливн. осадки} 9/9 600 м
[Cb cap]
+20.6 +13.3 63 +23 +24 комфорт 1008.3 1003.9
12 26.05 ЮЗ 3
{12}
20 км в посл. час ливневой дождь 8/8 600 м
[Cb cap]
+18.9 +14.8 77 +20 +22 1008.2 1003.8
15 26.05 ЮЗ 6-11
{15}
20 км 9/6 600 м
[Cb cap Ci fib]
+20.2 +13.1 64 +22 +22 комфорт 1008.3 1003.9 +21.9 3

 

Местоположение метеостанции Калач-на-Дону (Волгоградская область, Россия): широта 48.68 долгота 43.48 высота над уровнем моря 38 м.

В архиве по умолчанию представлена погода в Калаче-на-Дону за последнюю неделю. Архивные данные за месяц целиком и за предыдущие месяцы, начиная с января 2011 года, Вы можете получить, выбрав интересующий диапазон дат из раскрывающегося списка и нажав кнопку "Ввод!".


*Определитесь, кто Вы:
робот инопланетянин человек

Внимание! Время в таблицах - всемирное. Для получения местного времени необходимо прибавить поправку, которая равна 3 ч.

Смотрите также архив погоды в соседних городах и на ближайших метеорологических станциях:

Погода в Нижнем Чире (Волгоградская область, Россия) (47 км)
Погода в Волгограде (Волгоградская область, Россия) (66 км)
Погода в Волгограде город (Волгоградская область, Россия) (71 км)
Погода в Иловле (Волгоградская область, Россия) (79 км)
Погода в Серафимовиче (Волгоградская область, Россия) (113 км)
Погода в Котельниково (Волгоградская область, Россия) (119 км)
Погода в Малых Дербетах (Калмыкия, Россия) (123 км)
Погода в Морозовске (Ростовская область, Россия) (124 км)
Погода в Фролове (Волгоградская область, Россия) (125 км)
Погода в Боковской (Ростовская область, Россия) (135 км)

Пояснения к столбцам:

Ветер - указаны скорость ветра в м/с - средняя за 10 мин, порывы в срок и между сроками (в фигурных скобках) и направление, откуда дует ветер: С - северный, СВ - северо-восточный, В - восточный, ЮВ - юго-восточный, Ю - южный, ЮЗ - юго-западный, З - западный, СЗ - северо-западный.
Видимость - горизонтальная дальность видимости в метрах или километрах. При видимости от 1 до 10 км при отсутствии осадков обычно наблюдается дымка, при ухудшении видимости до 1 км и менее - туман. В сухую погоду видимость может ухудшаться дымом, пылью или мглою.
Явления - указаны атмосферные явления, наблюдавшиеся в срок или в последний час перед сроком; фигурными скобками обозначены явления, наблюдавшиеся между сроками (за 1-3 часа до срока); квадратными скобками обозначены град или гололедные отложения с указанием их диаметра в мм.
Облачность - указаны через наклонную черту общая и нижняя облачность в баллах и высота нижней границы облаков в метрах; квадратными скобками обозначены формы облаков: Ci - перистые, Cs - перисто-слоистые, Cc - перисто-кучевые, Ac - высококучевые, As - высокослоистые, Sc - слоисто-кучевые, Ns - слоисто-дождевые, Cu - кучевые, Cb - кучево-дождевые. Подробнее классификацию облаков см. в Атласе облаков (PDF).
T - Температура воздуха - температура, измеренная на высоте 2 м над землей.
Td - Температура точки росы - температура, при понижении до которой содержащийся в воздухе водяной пар достигнет насыщения.
f - Относительная влажность воздуха - влажноcть воздуха, измеренная на высоте 2 м над землей.
Te - Эффективная температура - температура, которую ощущает одетый по сезону человек в тени. Характеристика душности погоды. При расчете учитывается влияние влажности воздуха и скорости ветра на теплоощущения человека.
Tes - Эффективная температура на солнце - температура, которую ощущает человек, с поправкой на солнечный нагрев. Характеристика знойности погоды. Зависит от высоты солнца над горизонтом, облачности и скорости ветра. Ночью, в пасмурную погоду, а также при ветре 12 м/с и более поправка равна нулю.
P - Атмосферное давление - приведенное к уровню моря атмосферное давление.
Po - Атмосферное давление - измеренное на уровне метеостанции атмосферное давление.
Tmin - Минимальная температура - минимум температуры воздуха на высоте 2 м над землей.
Tmax - Максимальная температура - максимум температуры воздуха на высоте 2 м над землей.
R - Количество осадков - Количество выпавших осадков за период времени, мм. При наведении курсора мыши на число - период времени, за который выпало указанное количество осадков.
R24 - Количество осадков - Количество выпавших осадков за 24 часа, мм.
S - Снежный покров - Высота снежного покрова, см. При наведении курсора мыши на число - состояние снежного покрова и степень покрытия местности в баллах.